Torna al catalogo

STARLINK-37496

AttivoComunicazioniSSO
NORAD 69297·PAYLOAD·🇺🇸 United States

Lanciato May 30, 2026 da Vandenberg Space Force Base

Loading…

Prossimi Passaggi (prossime 24 ore)

TLE

AggiornatoSource: CelesTrak SupGP

Epoca: Sep 14, 2026, 23:33 UTC

1 69297C 26119B   26257.98173611  .00049343  00000+0  15318-2 0  2579
2 69297  97.2823 282.8830 0001558  91.4737 257.0257 15.33411756    12

Traccia STARLINK-37496 in tempo reale con AllMySat

Download on the App Store